Home   Weather   Limburg an der Lahn   Past weeks

Flag for Germany Past Weather in Limburg an der Lahn, Hesse, Germany — Yesterday and Last 2 Weeks

Now
48 °F

Scattered clouds.


Feels Like: 43 °F
Forecast: 50 / 57 °F
Wind: 12 mph from East

Location: Hessen

Current Time: Oct 1, 2016 at 9:09:39 AM

Latest Report: Oct 1, 2016 at 8:20 AM


Visibility: 2 mi

Pressure: 29.83 "Hg

Humidity: 100%

Dew Point: 48 °F

Location of Limburg an der LahnLocation

Past Weather in Limburg an der Lahn — Graph

°F

Limburg an der Lahn Temperature Yesterday

Maximum temperature yesterday: 57 °F (at 4:50 PM)
Minimum temperature yesterday: 52 °F (at 7:50 AM)
Average temperature yesterday: 54 °F

High & Low Weather Summary for the Past Weeks

 TemperatureHumidityPressure
High70 °F (Sep 25, 3:20 PM)100% (Sep 17, 7:50 AM)30.36 "Hg (Sep 17, 7:50 AM)
Low46 °F (Sep 21, 7:50 AM)45% (Sep 22, 3:50 PM)29.83 "Hg (Oct 1, 7:50 AM)
Average59 °F75%30.14 "Hg
* Reported Sep 16 7:50 AM — Oct 1 7:50 AM, Limburg an der Lahn, Weather by CustomWeather, © 2016

Note: Actual official high and low records may vary slightly from our data, if they occured in-between our weather recording intervals... More about our weather records

Advertising

Limburg an der Lahn Weather History for the Previous 24 Hours

Scroll right to see more
 ConditionsComfort  
Time TempWeatherWind HumidityBarometerVisibility
7:50 AM
Sat, Oct 1
48 °FLight rain. Fog.14 mph100%29.83 "Hg2 mi
8:50 PM
Fri, Sep 30
52 °FPassing clouds.6 mph100%30.01 "HgN/A
8:20 PM54 °FPartly cloudy.5 mph100%30.01 "HgN/A
7:50 PM54 °FPassing clouds.5 mph100%30.01 "HgN/A
7:20 PM54 °FPassing clouds.5 mph94%29.98 "HgN/A
6:50 PM54 °FScattered clouds.6 mph94%29.98 "HgN/A
6:20 PM55 °FScattered clouds.5 mph88%29.98 "HgN/A
5:50 PM55 °FScattered clouds.7 mph82%29.98 "HgN/A
5:20 PM57 °FScattered clouds.7 mph77%29.98 "HgN/A
4:50 PM57 °FPassing clouds.7 mph77%29.98 "HgN/A
4:20 PM55 °FScattered clouds.8 mph82%29.98 "HgN/A
3:50 PM55 °FScattered clouds.7 mph82%29.98 "HgN/A
3:20 PM55 °FScattered clouds.7 mph82%29.98 "HgN/A
2:50 PM55 °FScattered clouds.8 mph82%29.98 "HgN/A
2:20 PM55 °FScattered clouds.7 mph82%29.98 "HgN/A
1:50 PM55 °FScattered clouds.8 mph82%29.98 "HgN/A
1:20 PM55 °FBroken clouds.8 mph82%30.01 "HgN/A
12:50 PM54 °FScattered clouds.7 mph88%29.98 "HgN/A
12:20 PM54 °FBroken clouds.8 mph88%30.01 "HgN/A
11:50 AM54 °FPartly sunny.8 mph88%29.98 "HgN/A
11:20 AM54 °FPartly sunny.9 mph88%29.98 "HgN/A
10:50 AM54 °FPartly sunny.9 mph88%30.01 "HgN/A
10:20 AM54 °FBroken clouds.10 mph88%29.98 "HgN/A
9:50 AM52 °FBroken clouds.8 mph100%29.98 "HgN/A
9:20 AM52 °FPartly sunny.6 mph100%29.98 "HgN/A
Weather by CustomWeather, © 2016

See weather overviewHow to use our weather pages